1488261600.2,64862,6.06,72336.3,-2.59,-36.67,-36.73,0,*55
1488261601.47,64863,6.06,72302.3,-2.59,-36.49,-36.67,0,*5D
1488261602.75,64864,6.0,72294.5,-2.59,-36.37,-36.37,0,*56
1488261604.01,64865,6.0,72306.5,-2.59,-36.49,-36.55,0,*5A
1488261605.25,64866,6.0,72308.5,-2.61,-36.37,-36.55,0,*5B
1488261606.49,64867,6.0,72318.8,-2.61,-36.49,-36.67,0,*52
1488261607.7,64868,6.06,72328.3,-2.61,-36.31,-36.55,0,*53
1488261608.94,64869,6.06,72310.3,-2.61,-36.37,-36.55,0,*54
1488261610.18,64870,6.0,72296.8,-2.61,-36.37,-36.55,0,*5C
1488261611.41,64871,6.0,72288.8,-2.61,-36.13,-36.31,0,*59
1488261612.69,64872,6.0,72290.0,-2.63,-36.25,-36.37,0,*5B
1488261613.91,64873,6.06,72276.0,-2.61,-36.31,-36.55,0,*59
1488261615.12,64874,6.06,72282.0,-2.61,-36.55,-36.67,0,*5D
1488261616.34,64875,6.06,72288.8,-2.61,-36.55,-36.67,0,*5C
1488261617.55,64876,6.06,72306.3,-2.61,-36.55,-36.67,0,*5F
1488261618.76,64877,6.0,72262.5,-2.61,-36.55,-36.73,0,*5B
1488261620.0,64878,6.0,72240.8,-2.63,-36.55,-36.73,0,*56
1488261621.26,64879,6.06,72282.5,-2.63,-36.73,-36.79,0,*59
1488261622.54,64880,6.0,72276.8,-2.63,-36.79,-36.79,0,*55
1488261623.74,64881,6.06,72260.8,-2.61,-36.73,-36.85,0,*5F
1488261625.02,64882,6.06,72280.8,-2.63,-36.79,-36.91,0,*51
1488261626.31,64883,6.0,72302.0,-2.63,-36.61,-36.91,0,*59
1488261627.57,64884,6.06,72292.0,-2.63,-36.73,-36.79,0,*5B
1488261628.85,64885,6.0,72292.8,-2.63,-36.79,-36.91,0,*56
1488261630.05,64886,6.06,72292.0,-2.65,-36.73,-36.97,0,*5F
1488261631.29,64887,6.06,72312.3,-2.65,-36.91,-36.97,0,*52
1488261632.5,64888,6.0,72342.5,-2.65,-36.73,-36.97,0,*51
1488261633.75,64889,6.0,72342.0,-2.65,-36.91,-36.91,0,*5A
1488261635.0,64890,6.06,72370.0,-2.65,-36.79,-36.91,0,*54
1488261636.24,64891,6.06,72286.0,-2.67,-36.31,-36.31,0,*51
1488261637.51,64892,6.06,72274.8,-2.65,-36.25,-36.25,0,*50
1488261638.79,64893,6.06,72296.0,-2.67,-36.61,-36.79,0,*5A
1488261640.0,64894,6.06,72298.3,-2.65,-36.55,-36.73,0,*52
1488261641.26,64895,6.06,72290.8,-2.67,-36.49,-36.67,0,*59
1488261642.52,64896,6.06,72286.0,-2.67,-36.49,-36.67,0,*5A
1488261643.75,64897,6.06,72300.5,-2.65,-36.43,-36.61,0,*55
1488261645.01,64898,6.06,72300.5,-2.65,-36.61,-36.91,0,*55
1488261646.24,64899,6.06,72310.3,-2.65,-36.91,-36.97,0,*5D
1488261647.5,64900,6.06,72320.8,-2.67,-37.03,-37.21,0,*58
1488261648.74,64901,6.06,72324.5,-2.67,-36.85,-36.97,0,*5A
1488261650.02,64902,6.06,72328.5,-2.67,-36.61,-36.79,0,*53
1488261651.28,64903,6.0,72340.0,-2.67,-36.43,-36.79,0,*52
1488261652.54,64904,6.06,72330.0,-2.69,-36.49,-36.79,0,*51
1488261653.76,64905,6.06,72326.3,-2.69,-36.43,-36.67,0,*55
1488261655.0,64906,6.0,72328.8,-2.69,-36.43,-36.61,0,*50
1488261656.23,64907,6.0,72330.3,-2.69,-36.31,-36.49,0,*5E
1488261657.45,64908,6.06,72332.3,-2.69,-36.31,-36.43,0,*5B
1488261658.72,64909,6.0,72352.8,-2.69,-36.25,-36.49,0,*55
1488261659.96,64910,6.06,72350.0,-2.73,-36.25,-36.55,0,*5B
1488261661.2,64911,6.06,72344.3,-2.69,-36.31,-36.61,0,*53
1488261662.44,64912,6.06,72328.3,-2.69,-36.43,-36.49,0,*5F
1488261663.67,64913,6.06,72330.8,-2.69,-36.31,-36.61,0,*51
1488261664.89,64914,6.0,72326.0,-2.69,-36.31,-36.43,0,*56
1488261666.18,64915,6.06,72330.0,-2.67,-36.25,-36.49,0,*56
1488261667.41,64916,6.06,72320.8,-2.73,-36.31,-36.37,0,*5C
1488261668.7,64917,6.06,72328.3,-2.67,-36.25,-36.25,0,*5E
1488261669.95,64918,6.06,72330.5,-2.67,-36.13,-36.31,0,*51
1488261671.23,64919,6.0,72328.3,-2.67,-36.13,-36.49,0,*5F
1488261672.52,64920,6.0,72320.3,-2.67,-36.13,-36.25,0,*5F
1488261673.8,64921,6.0,72322.0,-2.67,-36.13,-36.25,0,*5E
1488261675.06,64922,6.06,72330.8,-2.67,-36.13,-36.31,0,*58
1488261676.34,64923,6.06,72346.3,-2.67,-36.13,-36.25,0,*5C
1488261677.62,64924,6.0,72336.3,-2.67,-36.13,-36.25,0,*5B
1488261678.89,64925,6.0,72348.8,-2.67,-36.25,-36.43,0,*5F
1488261680.12,64926,6.06,72374.3,-2.67,-36.31,-36.43,0,*59
1488261681.36,64927,6.0,72340.8,-2.65,-36.19,-36.25,0,*50
1488261682.62,64928,6.06,72348.8,-2.67,-36.25,-36.43,0,*52
1488261683.86,64929,6.0,72324.0,-2.65,-36.37,-36.55,0,*55
1488261685.12,64930,6.0,72340.8,-2.67,-36.43,-36.61,0,*5B
1488261686.38,64931,6.06,72334.0,-2.67,-36.43,-36.61,0,*5A
1488261687.62,64932,6.0,72336.0,-2.65,-36.37,-36.55,0,*5F
1488261688.9,64933,6.0,72320.5,-2.67,-36.49,-36.61,0,*52
1488261690.16,64934,6.06,72312.0,-2.67,-36.25,-36.43,0,*5F
1488261691.45,64935,6.06,72320.3,-2.67,-36.25,-36.49,0,*54
1488261692.71,64936,6.06,72322.5,-2.67,-36.25,-36.43,0,*5D
1488261693.97,64937,6.06,72322.3,-2.67,-36.31,-36.49,0,*53
1488261695.2,64938,6.06,72324.0,-2.65,-36.31,-36.49,0,*5E
1488261696.46,64939,6.06,72326.8,-2.67,-36.31,-36.49,0,*5D
1488261697.72,64940,6.06,72314.8,-2.67,-36.31,-36.61,0,*59
1488261698.95,64941,6.0,72312.0,-2.65,-36.43,-36.61,0,*5F
1488261700.24,64942,6.06,72316.8,-2.67,-36.25,-36.49,0,*54
1488261701.5,64943,6.06,72322.5,-2.67,-36.43,-36.49,0,*55
1488261702.74,64944,6.06,72334.0,-2.67,-36.43,-36.67,0,*5E
1488261704.0,64945,6.0,72324.5,-2.69,-36.61,-36.79,0,*5E
1488261705.28,64946,6.06,72334.8,-2.67,-36.49,-36.79,0,*59
1488261706.51,64947,6.0,72330.5,-2.67,-36.67,-36.85,0,*57
1488261707.76,64948,6.06,72336.8,-2.67,-36.79,-36.85,0,*57
1488261709.0,64949,6.06,72350.8,-2.69,-36.79,-36.97,0,*5B
1488261710.22,64950,6.0,72348.5,-2.69,-36.85,-37.03,0,*5C
1488261711.45,64951,6.06,72336.3,-2.69,-36.79,-36.97,0,*52
1488261712.66,64952,6.06,72324.3,-2.69,-36.67,-36.97,0,*5E
1488261713.92,64953,6.06,72328.3,-2.69,-36.61,-36.79,0,*59
1488261715.16,64954,6.06,72332.3,-2.73,-36.73,-36.91,0,*50
1488261716.39,64955,6.0,72334.8,-2.73,-36.73,-36.91,0,*51
1488261717.6,64956,6.06,72332.8,-2.69,-36.85,-36.85,0,*55
1488261718.84,64957,6.0,72328.0,-2.73,-36.67,-36.91,0,*56
1488261720.07,64958,6.06,72324.0,-2.73,-36.73,-36.91,0,*5C
1488261721.28,64959,6.0,72342.0,-2.73,-36.67,-36.85,0,*5D
1488261722.49,64960,6.06,72338.5,-2.69,-36.67,-36.85,0,*5C
1488261723.72,64961,6.06,72368.0,-2.73,-36.73,-36.91,0,*56
1488261724.93,64962,6.06,72334.8,-2.73,-36.73,-36.85,0,*50
1488261726.14,64963,6.06,72318.3,-2.73,-36.43,-36.67,0,*5E
1488261727.35,64964,6.0,72320.5,-2.73,-36.55,-36.73,0,*5B
1488261728.59,64965,6.06,72328.8,-2.73,-36.73,-36.91,0,*52
1488261729.82,64966,6.06,72340.0,-2.73,-36.73,-36.91,0,*51
1488261731.05,64967,6.06,72340.0,-2.73,-36.73,-36.91,0,*50
1488261732.29,64968,6.0,72342.3,-2.73,-36.67,-36.91,0,*5A
1488261733.52,64969,6.0,72354.8,-2.73,-36.73,-36.91,0,*5E
1488261734.78,64970,6.06,72350.3,-2.75,-36.85,-36.91,0,*59
1488261736.02,64971,6.0,72350.0,-2.75,-36.73,-36.85,0,*54
1488261737.28,64972,6.06,72346.8,-2.75,-36.67,-36.91,0,*57
1488261738.55,64973,6.06,72350.8,-2.75,-36.73,-36.91,0,*53
1488261739.8,64974,6.0,72324.3,-2.77,-36.73,-36.91,0,*56
1488261741.05,64975,6.06,72298.5,-2.75,-36.55,-36.55,0,*59
1488261742.32,64976,6.06,72288.5,-2.75,-36.49,-36.55,0,*57
1488261743.58,64977,6.06,72304.5,-2.77,-36.61,-36.73,0,*5A
1488261744.82,64978,6.06,72324.8,-2.75,-36.55,-36.67,0,*55
1488261746.06,64979,6.06,72332.3,-2.77,-36.55,-36.73,0,*53
1488261747.34,64980,6.06,72320.8,-2.77,-36.61,-36.79,0,*58
1488261748.62,64981,6.06,72330.8,-2.75,-36.49,-36.49,0,*52
1488261749.89,64982,6.06,72326.8,-2.75,-36.37,-36.55,0,*55
1488261751.13,64983,6.06,72324.3,-2.75,-36.55,-36.73,0,*54
1488261752.37,64984,6.06,72340.0,-2.75,-36.67,-36.85,0,*5B
1488261753.62,64985,6.0,72358.5,-2.77,-36.79,-36.97,0,*54
1488261754.86,64986,6.0,72362.8,-2.75,-36.73,-36.85,0,*5C
1488261756.12,64987,6.06,72348.3,-2.75,-36.73,-36.91,0,*58
1488261757.4,64988,6.06,72356.8,-2.77,-36.91,-36.91,0,*59
1488261758.68,64989,6.06,72366.0,-2.77,-36.79,-36.79,0,*58
1488261759.94,64990,6.06,72376.0,-2.77,-36.73,-36.79,0,*5A
1488261761.19,64991,6.0,72368.3,-2.77,-36.79,-36.73,0,*5B
1488261762.48,64992,6.0,72350.0,-2.77,-36.91,-36.91,0,*52
1488261763.75,64993,6.06,72342.5,-2.77,-36.79,-36.79,0,*53
1488261764.99,64994,6.06,72338.5,-2.77,-36.73,-36.73,0,*54
1488261766.25,64995,6.0,72326.0,-2.77,-36.73,-36.61,0,*56
1488261767.49,64996,6.0,72318.8,-2.79,-36.73,-36.61,0,*5B
1488261768.74,64997,6.06,72322.0,-2.79,-36.79,-36.61,0,*50
1488261769.96,64998,6.06,72324.5,-2.79,-36.73,-36.55,0,*52
1488261771.22,64999,6.06,72314.5,-2.79,-36.61,-36.61,0,*57
1488261772.45,65000,6.0,72326.8,-2.79,-36.61,-36.43,0,*5F
1488261773.7,65001,6.0,72324.0,-2.79,-36.61,-36.55,0,*59
1488261774.91,65002,6.06,72318.0,-2.79,-36.55,-36.43,0,*5A
1488261776.16,65003,6.06,72314.5,-2.77,-36.43,-36.37,0,*51
1488261777.42,65004,6.06,72290.0,-2.77,-36.61,-36.43,0,*55
1488261778.7,65005,6.0,72292.5,-2.81,-36.61,-36.49,0,*57
1488261779.91,65006,6.06,72302.8,-2.79,-36.55,-36.43,0,*5E
1488261781.16,65007,6.06,72294.0,-2.81,-36.43,-36.37,0,*5C
1488261782.43,65008,6.06,72276.8,-2.79,-36.37,-36.25,0,*54
1488261783.66,65009,6.06,72290.0,-2.79,-36.43,-36.49,0,*5C
1488261784.92,65010,6.06,72314.5,-2.81,-36.67,-36.61,0,*5F
1488261786.18,65011,6.06,72328.0,-2.79,-36.61,-36.61,0,*5F
1488261787.41,65012,6.06,72344.3,-2.81,-36.67,-36.67,0,*5B
1488261788.65,65013,6.06,72338.5,-2.81,-36.67,-36.67,0,*5A
1488261789.89,65014,6.06,72326.0,-2.79,-36.37,-36.55,0,*5E
1488261791.15,65015,6.06,72348.0,-2.81,-36.49,-36.67,0,*50
1488261792.38,65016,6.06,72340.8,-2.81,-36.67,-36.67,0,*5F
1488261793.66,65017,6.06,72330.5,-2.81,-36.61,-36.61,0,*5E
1488261794.91,65018,6.06,72338.0,-2.81,-36.43,-36.49,0,*5B
1488261796.19,65019,6.06,72342.0,-2.81,-36.49,-36.49,0,*50
1488261797.47,65020,6.06,72332.0,-2.81,-36.49,-36.61,0,*50
1488261798.73,65021,6.06,72344.0,-2.81,-36.43,-36.49,0,*51
1488261799.96,65022,6.06,72328.8,-2.81,-36.43,-36.43,0,*58
1488261801.19,65023,6.06,72322.5,-2.81,-36.43,-36.43,0,*59
1488261802.47,65024,6.06,72334.0,-2.81,-36.25,-36.49,0,*54
1488261803.7,65025,6.06,72334.3,-2.81,-36.31,-36.31,0,*5F
1488261804.93,65026,6.06,72344.0,-2.81,-36.31,-36.31,0,*5C
1488261806.16,65027,6.06,72346.5,-2.81,-36.31,-36.31,0,*5D
1488261807.4,65028,6.06,72334.3,-2.81,-36.31,-36.43,0,*57
1488261808.65,65029,6.06,72334.5,-2.83,-36.49,-36.49,0,*51
1488261809.88,65030,6.06,72332.3,-2.83,-36.37,-36.31,0,*5F
1488261811.14,65031,6.06,72330.0,-2.83,-36.37,-36.49,0,*51
1488261812.38,65032,6.06,72346.3,-2.83,-36.37,-36.55,0,*5F
1488261813.61,65033,6.06,72346.3,-2.83,-36.31,-36.49,0,*55
1488261814.84,65034,6.06,72332.8,-2.83,-36.37,-36.55,0,*59
1488261816.08,65035,6.06,72332.3,-2.83,-36.37,-36.55,0,*58
1488261817.34,65036,6.06,72346.0,-2.83,-36.37,-36.49,0,*56
1488261818.59,65037,6.06,72354.0,-2.83,-36.37,-36.49,0,*57
1488261819.85,65038,6.06,72346.0,-2.83,-36.37,-36.49,0,*58
1488261821.1,65039,6.06,72342.3,-2.83,-36.37,-36.49,0,*59
1488261822.31,65040,6.06,72338.8,-2.83,-36.31,-36.31,0,*5E
1488261823.56,65041,6.06,72332.0,-2.83,-36.37,-36.37,0,*5F
1488261824.77,65042,6.0,72348.3,-2.83,-36.31,-36.55,0,*5E
1488261826.03,65043,6.06,72360.8,-2.83,-36.37,-36.49,0,*54
1488261827.23,65044,6.06,72366.0,-2.83,-36.19,-36.31,0,*50
1488261828.44,65045,6.06,72334.8,-2.83,-36.31,-36.19,0,*51
1488261829.67,65046,6.06,72318.0,-2.83,-36.13,-36.31,0,*58
1488261830.87,65047,6.06,72318.8,-2.83,-36.19,-36.19,0,*59
1488261832.07,65048,6.06,72310.0,-2.83,-36.31,-36.19,0,*5C
1488261833.28,65049,6.06,72304.0,-2.83,-36.19,-36.19,0,*57
1488261834.53,65050,6.06,72314.5,-2.83,-36.37,-36.37,0,*5F
1488261835.78,65051,6.06,72300.8,-2.83,-36.37,-36.49,0,*57
1488261837.01,65052,6.06,72300.8,-2.83,-36.31,-36.37,0,*5B
1488261838.26,65053,6.06,72312.0,-2.83,-36.37,-36.37,0,*5C
1488261839.52,65054,6.0,72292.0,-2.83,-36.37,-36.49,0,*52
1488261840.75,65055,6.06,72300.8,-2.83,-36.31,-36.49,0,*55
1488261842.01,65056,6.06,72340.5,-2.81,-36.25,-36.31,0,*5E
1488261843.24,65057,6.06,72322.5,-2.83,-36.37,-36.55,0,*5C
1488261844.48,65058,6.06,72336.0,-2.83,-36.37,-36.55,0,*53
1488261845.72,65059,6.06,72342.3,-2.83,-36.37,-36.55,0,*52
1488261846.95,65060,6.06,72340.3,-2.83,-36.49,-36.67,0,*50
1488261848.19,65061,6.06,72324.5,-2.83,-36.49,-36.67,0,*51
1488261849.4,65062,6.06,72300.8,-2.83,-36.55,-36.73,0,*5A
1488261850.68,65063,6.06,72310.5,-2.85,-36.49,-36.49,0,*59
1488261851.92,65064,6.06,72330.8,-2.83,-36.37,-36.55,0,*5C
1488261853.16,65065,6.06,72328.3,-2.83,-36.37,-36.67,0,*5C
1488261854.36,65066,6.06,72348.5,-2.83,-36.55,-36.73,0,*5E
1488261855.6,65067,6.06,72338.5,-2.85,-36.55,-36.73,0,*59
1488261856.81,65068,6.06,72346.3,-2.83,-36.67,-36.73,0,*51
1488261858.05,65069,6.06,72342.8,-2.85,-36.55,-36.73,0,*57
1488261859.26,65070,6.0,72340.0,-2.83,-36.55,-36.73,0,*59
1488261860.46,65071,6.06,72346.3,-2.83,-36.55,-36.85,0,*51
1488261861.7,65072,6.06,72346.5,-2.85,-36.67,-36.73,0,*5C
1488261862.94,65073,6.06,72338.8,-2.85,-36.55,-36.73,0,*5C
1488261864.18,65074,6.06,72356.5,-2.85,-36.67,-36.67,0,*5F
1488261865.45,65075,6.06,72354.5,-2.85,-36.49,-36.73,0,*57
1488261866.69,65076,6.0,72344.3,-2.85,-36.55,-36.67,0,*5C
1488261867.97,65077,6.06,72354.3,-2.85,-36.49,-36.49,0,*5C
1488261869.24,65078,6.06,72370.5,-2.85,-36.49,-36.55,0,*5E
1488261870.51,65079,6.06,72360.3,-2.85,-36.49,-36.67,0,*5E
1488261871.77,65080,6.06,72344.0,-2.85,-36.49,-36.67,0,*58
1488261873.06,65081,6.06,72332.0,-2.85,-36.37,-36.49,0,*5C
1488261874.34,65082,6.06,72340.5,-2.85,-36.37,-36.37,0,*56
1488261875.6,65083,6.06,72350.0,-2.85,-36.31,-36.49,0,*58
1488261876.88,65084,6.06,72354.8,-2.85,-36.37,-36.49,0,*59
1488261878.15,65085,6.06,72344.3,-2.85,-36.37,-36.55,0,*55
1488261879.41,65086,6.06,72342.5,-2.87,-36.37,-36.61,0,*53
1488261880.66,65087,6.06,72338.8,-2.87,-36.37,-36.37,0,*51
1488261881.92,65088,6.06,72334.3,-2.85,-36.13,-36.31,0,*5C
1488261883.16,65089,6.06,72310.5,-2.85,-36.19,-36.31,0,*57
1488261884.4,65090,6.06,72326.5,-2.85,-36.31,-36.31,0,*55
1488261885.68,65091,6.06,72334.5,-2.85,-36.37,-36.49,0,*5D
1488261886.96,65092,6.06,72340.8,-2.85,-36.37,-36.49,0,*5E
1488261888.25,65093,6.06,72340.3,-2.85,-36.37,-36.49,0,*5F
1488261889.49,65094,6.06,72342.5,-2.85,-36.31,-36.31,0,*51
1488261890.75,65095,6.06,72338.3,-2.85,-36.37,-36.31,0,*56
1488261892.01,65096,6.06,72318.8,-2.85,-36.13,-36.31,0,*53
1488261893.24,65097,6.06,72318.8,-2.85,-36.31,-36.31,0,*52
1488261894.45,65098,6.06,72318.8,-2.83,-36.19,-36.31,0,*51
1488261895.7,65099,6.06,72318.8,-2.85,-36.19,-36.37,0,*50
1488261896.96,65100,6.06,72312.5,-2.85,-36.19,-36.37,0,*51
1488261898.22,65101,6.06,72320.5,-2.85,-36.01,-36.13,0,*5F
1488261899.48,65102,6.06,72328.8,-2.85,-36.01,-36.13,0,*5C
1488261900.73,65103,6.06,72346.0,-2.85,-36.13,-36.19,0,*54
1488261901.97,65104,6.06,72328.3,-2.85,-36.19,-36.31,0,*53
1488261903.21,65105,6.06,72328.5,-2.85,-36.31,-36.31,0,*58
1488261904.47,65106,6.06,72346.3,-2.85,-36.31,-36.37,0,*5D
1488261905.75,65107,6.06,72354.5,-2.85,-36.37,-36.49,0,*53
1488261906.99,65108,6.06,72360.0,-2.83,-36.37,-36.55,0,*57
1488261908.25,65109,6.06,72332.3,-2.85,-36.31,-36.37,0,*52
1488261909.5,65110,6.06,72316.3,-2.85,-36.19,-36.37,0,*50
1488261910.76,65111,6.06,72316.3,-2.85,-36.13,-36.31,0,*5D
1488261911.99,65112,6.06,72314.5,-2.87,-36.19,-36.37,0,*50
1488261913.25,65113,6.06,72296.3,-2.87,-36.25,-36.37,0,*5E
1488261914.5,65114,6.06,72292.5,-2.85,-36.19,-36.37,0,*54
1488261915.74,65115,6.06,72306.3,-2.85,-36.31,-36.19,0,*53
1488261916.97,65116,6.06,72296.8,-2.85,-36.31,-36.31,0,*5A
1488261918.24,65117,6.06,72312.5,-2.85,-36.37,-36.31,0,*5D
1488261919.47,65118,6.06,72298.5,-2.85,-36.31,-36.31,0,*54
1488261920.73,65119,6.06,72304.3,-2.85,-36.31,-36.37,0,*53
1488261921.97,65120,6.06,72302.5,-2.85,-36.31,-36.19,0,*55
1488261923.2,65121,6.06,72306.5,-2.83,-36.01,-36.13,0,*5B
1488261924.44,65122,6.06,72314.3,-2.85,-36.31,-36.31,0,*5D
1488261925.72,65123,6.06,72344.8,-2.85,-36.37,-36.37,0,*5C
1488261926.96,65124,6.06,72348.0,-2.85,-36.55,-36.67,0,*5A
1488261928.2,65125,6.06,72348.3,-2.85,-36.55,-36.73,0,*5E
1488261929.43,65126,6.06,72362.8,-2.83,-36.73,-36.91,0,*53
1488261930.66,65127,6.06,72380.8,-2.85,-36.73,-36.85,0,*51
1488261931.9,65128,6.06,72394.3,-2.85,-36.67,-36.85,0,*5B
1488261933.13,65129,6.06,72392.8,-2.85,-36.67,-36.85,0,*5A
1488261934.39,65130,6.06,72388.3,-2.85,-36.49,-36.73,0,*57
1488261935.68,65131,6.06,72378.5,-2.85,-36.49,-36.49,0,*5F
1488261936.96,65132,6.06,72386.3,-2.85,-36.37,-36.49,0,*55
1488261938.2,65133,6.06,72388.3,-2.87,-36.43,-36.61,0,*5F
1488261939.41,65134,6.06,72398.3,-2.87,-36.55,-36.73,0,*5C
1488261940.69,65135,6.06,72400.8,-2.89,-36.61,-36.79,0,*5E
1488261941.93,65136,6.06,72384.5,-2.87,-36.55,-36.61,0,*5D
1488261943.19,65137,6.06,72368.3,-2.89,-36.37,-36.43,0,*56
1488261944.44,65138,6.06,72366.3,-2.87,-36.37,-36.37,0,*54
1488261945.65,65139,6.06,72352.5,-2.87,-36.19,-36.19,0,*55
1488261946.91,65140,6.06,72374.3,-2.85,-36.01,-36.13,0,*5A
1488261948.15,65141,6.06,72352.8,-2.87,-35.77,-35.83,0,*51
1488261949.37,65142,6.06,72336.5,-2.87,-35.77,-36.01,0,*5B
1488261950.61,65143,6.06,72322.5,-2.85,-35.59,-35.77,0,*56
1488261951.86,65144,6.06,72302.5,-2.85,-35.77,-35.89,0,*5C
1488261953.1,65145,6.06,72282.0,-2.85,-35.71,-35.89,0,*5B
1488261954.34,65146,6.06,72326.8,-2.85,-35.59,-35.77,0,*53
1488261955.59,65147,6.06,72300.3,-2.85,-35.77,-35.77,0,*5E
1488261956.8,65148,6.06,72304.8,-2.83,-35.77,-35.77,0,*57
1488261958.04,65149,6.06,72308.3,-2.85,-35.89,-36.01,0,*53
1488261959.28,65150,6.06,72306.8,-2.85,-35.71,-35.77,0,*5E
1488261960.49,65151,6.06,72348.5,-2.83,-35.59,-35.77,0,*53
1488261961.7,65152,6.06,72324.8,-2.83,-35.59,-35.77,0,*50
1488261962.92,65153,6.06,72324.8,-2.83,-35.53,-35.71,0,*5D
1488261964.17,65154,6.06,72322.5,-2.85,-35.71,-35.89,0,*5B
1488261965.44,65155,6.06,72318.0,-2.85,-35.77,-35.95,0,*51
1488261966.66,65156,6.06,72322.3,-2.83,-35.77,-36.01,0,*5A
1488261967.87,65157,6.06,72324.0,-2.83,-35.77,-36.01,0,*5B
1488261969.09,65158,6.06,72316.3,-2.83,-35.89,-36.01,0,*55
1488261970.3,65159,6.06,72318.3,-2.83,-35.77,-36.01,0,*55
1488261971.53,65160,6.06,72330.5,-2.83,-36.01,-36.13,0,*5E
1488261972.79,65161,6.06,72320.0,-2.81,-36.07,-36.13,0,*5B
1488261973.99,65162,6.06,72312.3,-2.83,-36.01,-36.19,0,*56
1488261975.23,65163,6.06,72302.3,-2.83,-35.95,-36.01,0,*50
1488261976.47,65164,6.06,72306.5,-2.83,-35.95,-36.01,0,*57
1488261977.67,65165,6.06,72306.3,-2.83,-36.19,-36.19,0,*58
1488261978.88,65166,6.06,72304.3,-2.83,-36.19,-36.31,0,*51
1488261980.11,65167,6.06,72314.5,-2.83,-36.01,-36.13,0,*59
1488261981.33,65168,6.06,72316.5,-2.83,-36.19,-36.37,0,*59
1488261982.54,65169,6.06,72308.3,-2.83,-36.31,-36.31,0,*54
1488261983.75,65170,6.06,72306.5,-2.83,-36.31,-36.31,0,*5C
1488261984.97,65171,6.06,72296.8,-2.83,-36.13,-36.19,0,*57
1488261986.2,65172,6.06,72298.8,-2.83,-36.13,-36.19,0,*54
1488261987.46,65173,6.06,72304.8,-2.85,-36.19,-36.13,0,*53
1488261988.66,65174,6.06,72302.5,-2.83,-36.19,-36.19,0,*58
1488261989.88,65175,6.06,72314.8,-2.83,-36.13,-36.19,0,*53
1488261991.1,65176,6.06,72304.0,-2.79,-36.07,-36.01,0,*59
1488261992.33,65177,6.06,72310.3,-2.81,-36.07,-36.07,0,*59
1488261993.56,65178,6.06,72312.3,-2.81,-36.07,-36.07,0,*56
1488261994.83,65179,6.06,72310.0,-2.81,-36.13,-36.13,0,*57
1488261996.09,65180,6.06,72316.5,-2.81,-36.25,-36.31,0,*54
1488261997.32,65181,6.06,72314.0,-2.81,-36.31,-36.31,0,*50
1488261998.55,65182,6.06,72310.0,-2.81,-36.31,-36.31,0,*53
1488261999.81,65183,6.06,72316.0,-2.81,-36.31,-36.49,0,*5D
1488262001.08,65184,6.06,72322.5,-2.81,-36.49,-36.61,0,*5F
1488262002.32,65185,6.06,72334.3,-2.81,-36.43,-36.67,0,*52
1488262003.55,65186,6.06,72326.0,-2.79,-36.19,-36.37,0,*5C
1488262004.8,65187,6.06,72312.5,-2.81,-36.25,-36.31,0,*53
1488262006.04,65188,6.06,72296.8,-2.81,-36.43,-36.43,0,*59
1488262007.27,65189,6.06,72304.3,-2.81,-36.31,-36.43,0,*5D
1488262008.55,65190,6.06,72306.5,-2.81,-36.25,-36.25,0,*50
1488262009.78,65191,6.06,72286.3,-2.79,-36.19,-36.37,0,*5A
1488262011.04,65192,6.06,72282.5,-2.81,-36.07,-36.25,0,*52
1488262012.3,65193,6.06,72276.3,-2.81,-36.07,-36.13,0,*56
1488262013.5,65194,6.06,72272.0,-2.83,-36.19,-36.19,0,*56
1488262014.73,65195,6.06,72274.5,-2.83,-36.01,-36.13,0,*54
1488262015.96,65196,6.06,72276.3,-2.83,-36.19,-36.13,0,*5E
1488262017.21,65197,6.06,72288.8,-2.83,-36.13,-36.13,0,*55
1488262018.45,65198,6.06,72304.0,-2.81,-36.13,-36.07,0,*5D
1488262019.72,65199,6.06,72310.8,-2.79,-36.25,-36.25,0,*5E
1488262020.98,65200,6.06,72310.3,-2.81,-36.31,-36.25,0,*5F
1488262022.23,65201,6.06,72316.8,-2.81,-36.43,-36.49,0,*51
1488262023.47,65202,6.06,72318.5,-2.81,-36.43,-36.43,0,*58
1488262024.68,65203,6.06,72330.8,-2.79,-36.43,-36.31,0,*5B
1488262025.91,65204,6.06,72320.8,-2.81,-36.43,-36.43,0,*5E
1488262027.14,65205,6.06,72350.0,-2.81,-36.43,-36.31,0,*5A
1488262028.38,65206,6.06,72370.3,-2.83,-36.49,-36.55,0,*53
1488262029.59,65207,6.06,72362.0,-2.83,-36.31,-36.31,0,*5F
1488262030.82,65208,6.06,72352.5,-2.83,-36.01,-36.13,0,*53
1488262032.03,65209,6.06,72332.5,-2.83,-36.01,-36.01,0,*51
1488262033.24,65210,6.06,72328.0,-2.83,-36.01,-36.01,0,*59
1488262034.49,65211,6.06,72342.0,-2.83,-36.13,-36.13,0,*58
1488262035.7,65212,6.06,72342.3,-2.83,-35.71,-35.71,0,*5B
1488262036.97,65213,6.06,72340.5,-2.81,-35.95,-35.89,0,*55
1488262038.23,65214,6.06,72344.5,-2.81,-36.07,-35.95,0,*57
1488262039.48,65215,6.06,72314.3,-2.81,-36.13,-36.07,0,*5B
1488262040.76,65216,6.06,72320.5,-2.81,-36.13,-35.95,0,*50
1488262042.01,65217,6.06,72332.8,-2.81,-36.07,-36.13,0,*59
1488262043.3,65218,6.06,72322.8,-2.81,-36.25,-36.25,0,*53
1488262044.58,65219,6.06,72324.0,-2.81,-36.25,-36.13,0,*57
1488262045.79,65220,6.06,72308.8,-2.83,-36.31,-36.19,0,*50
1488262047.04,65221,6.06,72314.5,-2.81,-36.25,-36.07,0,*59
1488262048.32,65222,6.06,72308.5,-2.81,-36.13,-36.13,0,*5A
1488262049.57,65223,6.06,72306.8,-2.81,-36.31,-36.13,0,*5B
1488262050.86,65224,6.06,72302.5,-2.81,-36.25,-36.25,0,*5C
1488262052.12,65225,6.06,72288.8,-2.81,-36.25,-36.31,0,*58
1488262053.4,65226,6.06,72296.8,-2.81,-36.25,-36.25,0,*5E
1488262054.61,65227,6.06,72296.3,-2.83,-36.31,-36.19,0,*57
1488262055.84,65228,6.06,72292.5,-2.83,-36.19,-36.13,0,*58
1488262057.07,65229,6.06,72308.3,-2.83,-36.01,-36.13,0,*50
1488262058.27,65230,6.06,72298.0,-2.83,-36.19,-36.19,0,*5B
1488262059.51,65231,6.06,72302.5,-2.81,-36.13,-36.07,0,*5D
1488262060.74,65232,6.06,72300.0,-2.81,-36.07,-36.07,0,*5B
1488262061.97,65233,6.06,72310.3,-2.81,-36.07,-36.07,0,*5A
1488262063.2,65234,6.06,72314.8,-2.81,-36.07,-36.07,0,*5D
1488262064.46,65235,6.06,72318.0,-2.81,-36.07,-35.95,0,*54
1488262065.71,65236,6.06,72318.0,-2.81,-36.13,-36.07,0,*5A
1488262066.97,65237,6.06,72316.0,-2.81,-36.31,-36.13,0,*5E
1488262068.2,65238,6.06,72324.0,-2.81,-36.31,-36.31,0,*51
1488262069.44,65239,6.06,72326.0,-2.79,-36.31,-36.25,0,*52
1488262070.72,65240,6.06,72320.0,-2.81,-36.25,-36.25,0,*5E
1488262071.95,65241,6.06,72324.0,-2.81,-36.31,-36.31,0,*5F
1488262073.19,65242,6.06,72336.0,-2.81,-36.43,-36.31,0,*59
1488262074.42,65243,6.06,72334.8,-2.81,-36.43,-36.43,0,*5D
1488262075.65,65244,6.06,72328.0,-2.81,-36.43,-36.43,0,*5A
1488262076.94,65245,6.06,72328.0,-2.81,-36.25,-36.25,0,*5B
1488262078.19,65246,6.06,72328.0,-2.81,-36.13,-36.07,0,*5D
1488262079.45,65247,6.06,72326.3,-2.81,-35.95,-35.89,0,*54
1488262080.73,65248,6.06,72336.5,-2.81,-35.65,-35.83,0,*5E
1488262081.99,65249,6.06,72338.3,-2.81,-35.83,-35.89,0,*5D
1488262083.24,65250,6.06,72340.3,-2.79,-35.83,-35.89,0,*52
1488262084.48,65251,6.06,72350.8,-2.79,-35.89,-35.83,0,*53
1488262085.72,65252,6.06,72334.3,-2.81,-35.53,-35.71,0,*5D
1488262086.93,65253,6.06,72320.0,-2.79,-35.59,-35.47,0,*54
1488262088.17,65254,6.06,72342.5,-2.79,-35.77,-35.83,0,*57
1488262089.39,65255,6.06,72342.3,-2.79,-35.89,-35.89,0,*5D
1488262090.65,65256,6.06,72346.5,-2.77,-35.77,-35.65,0,*53
1488262091.85,65257,6.06,72372.0,-2.79,-35.59,-35.59,0,*5F
1488262093.09,65258,6.06,72370.8,-2.77,-35.47,-35.47,0,*5E
1488262094.31,65259,6.06,72338.5,-2.77,-35.59,-35.59,0,*5F
1488262095.57,65260,6.06,72328.3,-2.77,-35.29,-35.41,0,*5B
1488262096.82,65261,6.06,72332.3,-2.77,-35.59,-35.65,0,*5B
1488262098.07,65262,6.06,72324.0,-2.77,-35.77,-35.89,0,*56
1488262099.31,65263,6.06,72314.3,-2.75,-35.59,-35.77,0,*58
1488262100.55,65264,6.06,72326.5,-2.77,-35.77,-35.77,0,*51
1488262101.83,65265,6.06,72358.5,-2.77,-35.65,-35.65,0,*50
1488262103.09,65266,6.06,72268.0,-2.77,-35.29,-35.41,0,*5D
1488262104.34,65267,6.06,72260.3,-2.75,-35.41,-35.59,0,*59
1488262105.61,65268,6.06,72276.5,-2.75,-35.83,-36.01,0,*56
1488262106.88,65269,6.06,72274.3,-2.75,-35.77,-35.83,0,*55